Weather History for McGuire AFB, NJ

Change the Weather History Date:

Sunday, February 3, 2013

  Actual Average Record
Temperature  
Mean Temperature 26 °F -  
Max Temperature 32 °F 40 °F 62 °F (2006)
Min Temperature 19 °F 23 °F 14 °F (2000)
Degree Days  
Heating Degree Days 40    
Moisture  
Dew Point 21 °F    
Average Humidity 82    
Maximum Humidity 93    
Minimum Humidity 60    
Precipitation  
Precipitation 0.00 in - - ()
Snow  
Snow 0.00 in - - ()
Snow Depth 1.00 in    
Sea Level Pressure  
Sea Level Pressure 29.88 in    
Wind  
Wind Speed 3 mph (WNW)    
Max Wind Speed 10 mph    
Max Gust Speed -    
Visibility 8 miles    
Events Snow    
Averages and records for this station are not official NWS values.
T = Trace of Precipitation, MM = Missing Value Source: NWS Daily Summary

Daily Weather History Graph

Daily Weather History Graph

Search for Another Location

Airport:

Trip Planner

Search our weather history database for the weather conditions in past years. The results will help you decide how hot, cold, wet, or windy it might be!

Date:

Astronomy

Feb. 03, 2013 Rise Set
Actual Time 7:04 AM EST 5:20 PM EST
Civil Twilight 6:36 AM EST 5:48 PM EST
Nautical Twilight 6:03 AM EST 6:21 PM EST
Astronomical Twilight 5:32 AM EST 6:52 PM EST
Moon 12:29 AM EST (2/3) 10:55 AM EST (2/3)
Length of Visible Light 11h 12m
Length of Day
10h 15m
Waning Gibbous, 49% of the Moon is Illuminated
Feb 3
Waning Gibbous
Feb 10
New
Feb 17
First Quarter
Feb 25
Full
Mar 4
Last Quarter

Hourly Weather History & Observations

Time (EST) Temp. Windchill Dew Point Humidity Pressure Visibility Wind Dir Wind Speed Gust Speed Precip Events Conditions
12:00 AM 24.8 °F - 21.2 °F 86% 30.03 in 4.0 mi Calm Calm - N/A Snow Light Snow
12:03 AM 24.8 °F - 21.2 °F 86% 30.03 in 4.0 mi Calm Calm - N/A Snow Light Snow
12:13 AM 24.8 °F - 23.0 °F 93% 30.02 in 5.0 mi Calm Calm - N/A Snow Light Snow
12:55 AM 24.3 °F - 22.1 °F 91% 30.02 in 5.0 mi Calm Calm - 0.00 in Snow Light Snow
12:59 AM 24.8 °F 20.5 °F 21.2 °F 86% 30.02 in 5.0 mi ESE 3.5 mph - N/A Snow Light Snow
1:14 AM 24.8 °F - 21.2 °F 86% 30.01 in 4.0 mi Calm Calm - N/A Snow Light Snow
1:24 AM 24.8 °F - 21.2 °F 86% 30.00 in 4.0 mi Calm Calm - N/A Snow Light Snow
1:36 AM 24.8 °F - 21.2 °F 86% 30.00 in 6.0 mi Calm Calm - N/A   Overcast
1:55 AM 23.5 °F - 21.6 °F 92% 29.99 in 10.0 mi Calm Calm - 0.00 in   Overcast
2:03 AM 23.0 °F 18.4 °F 21.2 °F 93% 29.99 in 10.0 mi NE 3.5 mph - N/A   Overcast
2:14 AM 23.0 °F 18.4 °F 21.2 °F 93% 29.98 in 10.0 mi NE 3.5 mph - N/A   Mostly Cloudy
2:36 AM 23.0 °F - 21.2 °F 93% 29.98 in 10.0 mi Calm Calm - N/A Snow Light Snow
2:55 AM 23.2 °F - 20.8 °F 91% 29.97 in 8.0 mi Calm Calm - 0.00 in Snow Light Snow
3:04 AM 23.0 °F - 21.2 °F 93% 29.97 in 8.0 mi Calm Calm - N/A Snow Light Snow
3:13 AM 21.2 °F 16.4 °F 19.4 °F 93% 29.96 in 10.0 mi NNE 3.5 mph - N/A Snow Light Snow
3:22 AM 21.2 °F 16.4 °F 19.4 °F 93% 29.96 in 9.0 mi NE 3.5 mph - N/A   Overcast
3:24 AM 21.2 °F 16.4 °F 19.4 °F 93% 29.95 in 8.0 mi NE 3.5 mph - N/A Snow Light Snow
3:33 AM 21.2 °F 16.4 °F 19.4 °F 93% 29.95 in 9.0 mi NNE 3.5 mph - N/A   Mostly Cloudy
3:55 AM 21.0 °F - 19.0 °F 92% 29.94 in 10.0 mi Calm Calm - 0.00 in   Overcast
4:20 AM 21.2 °F - 19.4 °F 93% 29.93 in 10.0 mi Calm Calm - N/A   Overcast
4:55 AM 22.1 °F - 20.1 °F 92% 29.92 in 10.0 mi Calm Calm - N/A   Overcast
5:30 AM 21.2 °F - 19.4 °F 93% 29.93 in 6.0 mi Calm Calm - N/A   Mostly Cloudy
5:34 AM 21.2 °F - 19.4 °F 93% 29.93 in 4.0 mi Calm Calm - N/A   Mostly Cloudy
5:50 AM 21.2 °F - 19.4 °F 93% 29.93 in 1.0 mi Calm Calm - N/A   Overcast
5:51 AM 21.2 °F - 17.6 °F 86% 29.93 in 1.0 mi Calm Calm - N/A   Overcast
5:52 AM 21.2 °F - 17.6 °F 86% 29.93 in 0.8 mi Calm Calm - N/A   Overcast
5:55 AM 20.1 °F - 18.0 °F 91% 29.93 in 4.0 mi Calm Calm - N/A   Overcast
6:21 AM 19.4 °F - 17.6 °F 93% 29.94 in 4.0 mi Calm Calm - N/A   Mostly Cloudy
6:55 AM 20.7 °F 15.8 °F 18.5 °F 91% 29.94 in 10.0 mi North 3.5 mph - N/A   Mostly Cloudy
7:21 AM 23.0 °F 15.8 °F 21.2 °F 93% 29.94 in 10.0 mi NNE 5.8 mph - N/A   Overcast
7:37 AM 23.0 °F 15.8 °F 21.2 °F 93% 29.94 in 10.0 mi NE 5.8 mph - N/A   Overcast
7:44 AM 23.0 °F 18.4 °F 21.2 °F 93% 29.95 in 10.0 mi NE 3.5 mph - N/A   Overcast
7:55 AM 23.2 °F 17.2 °F 21.4 °F 93% 29.94 in 10.0 mi NNE 4.6 mph - N/A   Overcast
8:31 AM 24.8 °F 17.9 °F 23.0 °F 93% 29.94 in 10.0 mi North 5.8 mph - N/A   Overcast
8:52 AM 24.8 °F 17.9 °F 23.0 °F 93% 29.94 in 10.0 mi NNW 5.8 mph - N/A   Scattered Clouds
8:55 AM 24.8 °F 17.9 °F 22.1 °F 89% 29.94 in 10.0 mi NNW 5.8 mph - N/A   Scattered Clouds
9:20 AM 26.6 °F 20.0 °F 19.4 °F 74% 29.93 in 10.0 mi NNW 5.8 mph - N/A   Mostly Cloudy
9:46 AM 26.6 °F 20.0 °F 21.2 °F 80% 29.92 in 10.0 mi NW 5.8 mph - N/A   Scattered Clouds
9:53 AM 26.6 °F 21.2 °F 19.4 °F 74% 29.92 in 10.0 mi North 4.6 mph - N/A   Mostly Cloudy
9:55 AM 27.1 °F 23.2 °F 20.3 °F 75% 29.92 in 10.0 mi North 3.5 mph - N/A   Mostly Cloudy
10:55 AM 28.4 °F 21.2 °F 21.2 °F 74% 29.91 in 10.0 mi North 6.9 mph - N/A   Overcast
11:18 AM 28.4 °F 23.3 °F 21.2 °F 74% 29.89 in 10.0 mi NNW 4.6 mph - N/A   Overcast
11:55 AM 28.8 °F 23.7 °F 21.0 °F 73% 29.87 in 10.0 mi NNW 4.6 mph - N/A   Mostly Cloudy
12:38 PM 30.2 °F 26.7 °F 21.2 °F 69% 29.85 in 10.0 mi Variable 3.5 mph - N/A   Mostly Cloudy
12:39 PM 30.2 °F 26.7 °F 21.2 °F 69% 29.85 in 10.0 mi NE 3.5 mph - N/A   Mostly Cloudy
12:41 PM 30.2 °F - 21.2 °F 69% 29.84 in 10.0 mi Calm Calm - N/A   Mostly Cloudy
12:52 PM 30.2 °F - 23.0 °F 75% 29.84 in 10.0 mi Calm Calm - N/A   Mostly Cloudy
12:55 PM 30.4 °F 25.6 °F 22.1 °F 71% 29.84 in 10.0 mi Variable 4.6 mph - N/A   Mostly Cloudy
1:34 PM 32.0 °F 27.5 °F 21.2 °F 64% 29.83 in 10.0 mi WNW 4.6 mph - N/A   Mostly Cloudy
1:40 PM 30.2 °F 26.7 °F 21.2 °F 69% 29.82 in 10.0 mi Variable 3.5 mph - N/A   Overcast
1:45 PM 30.2 °F - 21.2 °F 69% 29.82 in 10.0 mi Calm Calm - N/A   Overcast
1:48 PM 30.2 °F 25.4 °F 21.2 °F 69% 29.82 in 10.0 mi North 4.6 mph - N/A   Mostly Cloudy
1:55 PM 30.7 °F 26.0 °F 21.7 °F 69% 29.82 in 10.0 mi NW 4.6 mph - N/A   Mostly Cloudy
2:03 PM 32.0 °F 26.4 °F 21.2 °F 64% 29.81 in 10.0 mi NW 5.8 mph - N/A   Mostly Cloudy
2:26 PM 30.2 °F 24.3 °F 21.2 °F 69% 29.81 in 10.0 mi WNW 5.8 mph - N/A   Mostly Cloudy
2:41 PM 30.2 °F 24.3 °F 21.2 °F 69% 29.81 in 10.0 mi WNW 5.8 mph - N/A   Mostly Cloudy
2:44 PM 30.2 °F 24.3 °F 21.2 °F 69% 29.81 in 10.0 mi WNW 5.8 mph - N/A   Mostly Cloudy
2:49 PM 32.0 °F 24.8 °F 21.2 °F 64% 29.81 in 10.0 mi NW 8.1 mph - N/A   Mostly Cloudy
2:55 PM 31.5 °F 24.9 °F 21.2 °F 66% 29.81 in 10.0 mi NW 6.9 mph - N/A   Mostly Cloudy
2:59 PM 32.0 °F 24.8 °F 21.2 °F 64% 29.81 in 10.0 mi WNW 8.1 mph - N/A   Scattered Clouds
3:05 PM 32.0 °F 24.8 °F 21.2 °F 64% 29.81 in 10.0 mi NW 8.1 mph - N/A   Mostly Cloudy
3:26 PM 32.0 °F 24.2 °F 19.4 °F 60% 29.81 in 10.0 mi West 9.2 mph - N/A   Overcast
3:55 PM 31.8 °F 25.4 °F 19.8 °F 61% 29.80 in 10.0 mi West 6.9 mph - N/A   Overcast
4:55 PM 30.0 °F - 18.9 °F 63% 29.81 in - North - - N/A   Mostly Cloudy
5:55 PM 27.3 °F 22.0 °F 17.8 °F 67% 29.81 in 10.0 mi West 4.6 mph - N/A   Clear
6:55 PM 27.1 °F - 17.6 °F 67% 29.82 in 10.0 mi Calm Calm - N/A   Clear
7:55 PM 23.9 °F - 18.0 °F 78% 29.83 in 10.0 mi Calm Calm - N/A   Clear
8:55 PM 22.5 °F 17.8 °F 18.0 °F 83% 29.83 in 10.0 mi SW 3.5 mph - N/A   Partly Cloudy
9:55 PM 24.4 °F 18.6 °F 20.1 °F 84% 29.83 in 10.0 mi SSW 4.6 mph - N/A   Overcast
10:19 PM 26.6 °F 21.2 °F 21.2 °F 80% 29.83 in 10.0 mi SSW 4.6 mph - N/A   Overcast
10:30 PM 26.6 °F 22.6 °F 21.2 °F 80% 29.83 in 10.0 mi SSW 3.5 mph - N/A   Overcast
10:31 PM 26.6 °F 22.6 °F 21.2 °F 80% 29.83 in 10.0 mi SSW 3.5 mph - N/A   Overcast
10:49 PM 26.6 °F 21.2 °F 21.2 °F 80% 29.83 in 10.0 mi SSW 4.6 mph - N/A   Overcast
10:50 PM 26.6 °F 21.2 °F 21.2 °F 80% 29.83 in 10.0 mi SW 4.6 mph - N/A   Overcast
10:51 PM 26.6 °F 21.2 °F 21.2 °F 80% 29.83 in 10.0 mi SW 4.6 mph - N/A   Overcast
10:55 PM 26.6 °F 21.2 °F 21.0 °F 79% 29.83 in 10.0 mi SSW 4.6 mph - 0.00 in Snow Light Snow
10:56 PM 26.6 °F 21.2 °F 21.2 °F 80% 29.83 in 10.0 mi SSW 4.6 mph - N/A Snow Light Snow
10:57 PM 26.6 °F 21.2 °F 21.2 °F 80% 29.83 in 10.0 mi SSW 4.6 mph - N/A Snow Light Snow
11:11 PM 26.6 °F 21.2 °F 21.2 °F 80% 29.83 in 6.0 mi SW 4.6 mph - N/A Snow Light Snow
11:12 PM 26.6 °F 22.6 °F 21.2 °F 80% 29.83 in 6.0 mi SW 3.5 mph - N/A Snow Light Snow
11:17 PM 26.6 °F 18.2 °F 21.2 °F 80% 29.84 in 5.0 mi WNW 8.1 mph - N/A Snow Light Snow
11:18 PM 26.6 °F 18.2 °F 21.2 °F 80% 29.84 in 4.0 mi WNW 8.1 mph - N/A Snow Light Snow
11:21 PM 26.6 °F 18.2 °F 23.0 °F 86% 29.84 in 2.5 mi WNW 8.1 mph - N/A Snow Light Snow
11:22 PM 26.6 °F 18.2 °F 23.0 °F 86% 29.84 in 1.8 mi WNW 8.1 mph - N/A Snow Light Snow
11:23 PM 26.6 °F 19.1 °F 23.0 °F 86% 29.84 in 1.2 mi WNW 6.9 mph - N/A Snow Light Snow
11:24 PM 26.6 °F 19.1 °F 23.0 °F 86% 29.84 in 1.0 mi WNW 6.9 mph - N/A Snow Light Snow
11:26 PM 26.6 °F 19.1 °F 23.0 °F 86% 29.84 in 0.8 mi West 6.9 mph - N/A Snow Light Snow
11:27 PM 26.6 °F 19.1 °F 23.0 °F 86% 29.84 in 0.8 mi West 6.9 mph - N/A Snow Light Snow
11:30 PM 26.6 °F 20.0 °F 23.0 °F 86% 29.84 in 0.8 mi WSW 5.8 mph - N/A Snow Light Snow
11:32 PM 26.6 °F 20.0 °F 23.0 °F 86% 29.84 in 0.8 mi WSW 5.8 mph - N/A Snow Light Snow
11:34 PM 26.6 °F 20.0 °F 23.0 °F 86% 29.84 in 1.0 mi WSW 5.8 mph - N/A Snow Light Snow
11:37 PM 26.6 °F 20.0 °F 24.8 °F 93% 29.84 in 1.2 mi WSW 5.8 mph - N/A Snow Light Snow
11:39 PM 26.6 °F 20.0 °F 24.8 °F 93% 29.84 in 1.5 mi WSW 5.8 mph - N/A Snow Light Snow
11:41 PM 26.6 °F 20.0 °F 24.8 °F 93% 29.84 in 1.8 mi WSW 5.8 mph - N/A Snow Light Snow
11:43 PM 26.6 °F 19.1 °F 24.8 °F 93% 29.84 in 2.0 mi West 6.9 mph - N/A Snow Light Snow
11:55 PM 27.0 °F 17.3 °F 24.6 °F 91% 29.84 in 2.0 mi West 10.4 mph - 0.00 in Snow Light Snow